Satellite-Ground Cal/Val Region Overpasses Predictions

Prediction of Satellite NPP Overpassing Cal/Val Region: PacNW

Region Location: (Latitude: 10.00, Longitude: 139.50) to (Latitude: 22.70, Longitude: 165.60).

Table of predicted overpasses for the next 14.0 days since TLE Epoch: 6/7/2016
Interval Starting Time Starting Location Ending Time Ending Location
1 06/07/2016 14:53:10 ( 22.68, 161.86) 06/07/2016 14:56:46 ( 10.00, 158.84)
2 06/08/2016 03:43:45 ( 10.00, 144.01) 06/08/2016 03:47:21 ( 22.68, 141.00)
3 06/08/2016 14:35:19 ( 18.54, 165.60) 06/08/2016 14:37:44 ( 10.03, 163.61)
4 06/08/2016 16:15:39 ( 22.64, 141.23) 06/08/2016 16:17:40 ( 15.54, 139.51)
5 06/09/2016 03:24:43 ( 10.03, 148.76) 06/09/2016 03:28:18 ( 22.66, 145.76)
6 06/09/2016 15:56:36 ( 22.67, 146.00) 06/09/2016 16:00:11 ( 10.05, 142.99)
7 06/10/2016 03:05:41 ( 10.01, 153.53) 06/10/2016 03:09:17 ( 22.69, 150.51)
8 06/10/2016 15:37:34 ( 22.70, 150.76) 06/10/2016 15:41:10 ( 10.01, 147.74)
9 06/11/2016 02:46:39 ( 10.04, 158.28) 06/11/2016 02:50:14 ( 22.66, 155.28)
10 06/11/2016 15:18:32 ( 22.66, 155.51) 06/11/2016 15:22:07 ( 10.04, 152.51)
11 06/12/2016 02:27:37 ( 10.01, 163.04) 06/12/2016 02:31:13 ( 22.70, 160.03)
12 06/12/2016 14:59:30 ( 22.69, 160.27) 06/12/2016 15:03:06 ( 10.01, 157.26)
13 06/13/2016 02:11:15 ( 19.39, 165.60) 06/13/2016 02:12:11 ( 22.67, 164.79)
14 06/13/2016 03:50:05 ( 10.05, 142.41) 06/13/2016 03:53:34 ( 22.33, 139.50)
15 06/13/2016 14:40:28 ( 22.65, 165.02) 06/13/2016 14:44:03 ( 10.03, 162.02)
16 06/13/2016 16:21:58 ( 22.65, 139.64) 06/13/2016 16:22:07 ( 22.12, 139.51)
17 06/14/2016 03:31:03 ( 10.03, 147.18) 06/14/2016 03:34:38 ( 22.65, 144.18)
18 06/14/2016 16:02:56 ( 22.67, 144.41) 06/14/2016 16:06:31 ( 10.05, 141.41)
19 06/15/2016 03:12:01 ( 10.01, 151.94) 06/15/2016 03:15:37 ( 22.69, 148.93)
20 06/15/2016 15:43:53 ( 22.70, 149.17) 06/15/2016 15:47:29 ( 10.02, 146.16)
21 06/16/2016 02:52:59 ( 10.04, 156.69) 06/16/2016 02:56:34 ( 22.66, 153.69)
22 06/16/2016 15:24:52 ( 22.66, 153.92) 06/16/2016 15:28:27 ( 10.04, 150.92)
23
